Weather History for KHYR - March, 2013

Change the Weather History Date:

Sunday, March 3, 2013

  Actual Average Record
Temperature  
Mean Temperature 11 °F -  
Max Temperature 30 °F 44 °F 43 °F (2001)
Min Temperature -8 °F 15 °F -29 °F (2014)
Degree Days  
Heating Degree Days 54    
Moisture  
Dew Point 0 °F    
Average Humidity 57    
Maximum Humidity 83    
Minimum Humidity 29    
Precipitation  
Precipitation 0.00 in - - ()
Sea Level Pressure  
Sea Level Pressure 30.17 in    
Wind  
Wind Speed 2 mph (ENE)    
Max Wind Speed 8 mph    
Max Gust Speed -    
Visibility 10 miles    
Events      
Averages and records for this station are not official NWS values.
T = Trace of Precipitation, MM = Missing Value Source: NWS Daily Summary

Daily Weather History Graph

Daily Weather History Graph

Search for Another Location

Airport or City:

Trip Planner

Search our weather history database for the weather conditions in past years. The results will help you decide how hot, cold, wet, or windy it might be!

Date:

Astronomy

Mar. 03, 2013 Rise Set
Actual Time 6:40 AM CST 5:55 PM CST
Civil Twilight 6:10 AM CST 6:25 PM CST
Nautical Twilight 5:36 AM CST 7:00 PM CST
Astronomical Twilight 5:01 AM CST 7:34 PM CST
Moon No Moon Rise 9:34 AM CST (3/3)
Length of Visible Light 12h 14m
Length of Day
11h 14m
Waning Gibbous, 63% of the Moon is Illuminated
Mar 3
Waning Gibbous
Mar 4
Last Quarter
Mar 11
New
Mar 19
First Quarter
Mar 27
Full

Hourly Weather History & Observations

Time (CST) Temp. Windchill Dew Point Humidity Pressure Visibility Wind Dir Wind Speed Gust Speed Precip Events Conditions
12:53 AM -0.9 °F - -6.0 °F 79% 30.23 in 10.0 mi Calm Calm - N/A   Clear
1:53 AM -2.9 °F - -9.0 °F 75% 30.23 in 10.0 mi Calm Calm - N/A   Clear
2:53 AM -5.1 °F - -11.0 °F 76% 30.21 in 10.0 mi Calm Calm - N/A   Clear
3:53 AM -7.1 °F - -11.9 °F 79% 30.22 in 10.0 mi Calm Calm - N/A   Clear
4:53 AM -8.0 °F - -14.1 °F 75% 30.22 in 10.0 mi Calm Calm - N/A   Clear
6:53 AM -6.0 °F - -9.9 °F 83% 30.23 in 10.0 mi Calm Calm - N/A   Mostly Cloudy
7:53 AM 1.9 °F - -2.9 °F 80% 30.22 in 10.0 mi Calm Calm - N/A   Clear
8:53 AM 16.0 °F 8.8 °F 5.0 °F 62% 30.21 in 10.0 mi East 4.6 mph - N/A   Clear
9:53 AM 19.9 °F 12.1 °F 5.0 °F 52% 30.20 in 10.0 mi East 5.8 mph - N/A   Clear
10:53 AM 23.0 °F 13.9 °F 1.0 °F 39% 30.19 in 10.0 mi East 8.1 mph - N/A   Clear
11:53 AM 25.0 °F 20.7 °F -0.9 °F 33% 30.18 in 10.0 mi ESE 3.5 mph - N/A   Clear
12:53 PM 28.0 °F 24.2 °F 1.0 °F 31% 30.15 in 10.0 mi ENE 3.5 mph - N/A   Clear
1:53 PM 28.9 °F 23.9 °F 1.9 °F 32% 30.13 in 10.0 mi East 4.6 mph - N/A   Clear
2:53 PM 30.9 °F 26.2 °F 3.0 °F 31% 30.12 in 10.0 mi East 4.6 mph - N/A   Clear
4:53 PM 30.9 °F 25.2 °F 1.9 °F 29% 30.10 in 10.0 mi ENE 5.8 mph - N/A   Clear
5:53 PM 28.0 °F 24.2 °F 1.0 °F 31% 30.11 in 10.0 mi NNE 3.5 mph - N/A   Clear
6:53 PM 25.0 °F 17.1 °F 6.1 °F 45% 30.12 in 10.0 mi ENE 6.9 mph - N/A   Clear
7:53 PM 23.0 °F 17.0 °F 7.0 °F 50% 30.12 in 10.0 mi NNE 4.6 mph - N/A   Clear
8:53 PM 21.0 °F 16.2 °F 9.0 °F 60% 30.12 in 10.0 mi NE 3.5 mph - N/A   Clear
9:53 PM 19.0 °F 13.9 °F 9.0 °F 65% 30.11 in 10.0 mi NNE 3.5 mph - N/A   Clear
10:53 PM 17.1 °F - 9.0 °F 71% 30.11 in 10.0 mi Calm Calm - N/A   Clear
11:53 PM 14.0 °F 8.2 °F 8.1 °F 77% 30.11 in 10.0 mi Variable 3.5 mph - N/A   Clear